Portada
METAR-TAF:

METAR-TAF

Aeropuertos :

Aeropuerto de Retalhuleu

Retalhuleu, Guatemala

latitud: 14-32N, longitud: 091-40W, altitud: 239 m

Observación

El informe se hizo hace 5 horas y 55 minutos, a las 00:00 UTC
Viento 4 kt del suroeste
Temperatura 29°C
Humedad 66%
Presión 1014 hPa
Visibilidad 10 km o más
Escasas nubes a una altura de 2500 ft

METAR: MGRT 120000Z 22004KT 9999 FEW025 29/22 Q1014 A2994 VOL,SANTA MARIA Y SANTIAGUITO EN ACTIVIDAD

Hora: 23:55 (05:55 UTC)


TAF: falta

Observaciones y pronósticos meteorológicos de más de 4000 aeropuertos (mensajes METAR y TAF).

Los puntos amarillos y rojos representan las estaciones disponibles.

Ponga el ratón en el punto deseado para ver el nombre de la estación.

Haga clic para ver las observaciones y los pronósticos meteorológicos.

Para cambiar el mapa : haga clic en los botones verdes con una cruz de color negro para hacer un zoom, en el botón verde con un guión para alejar o en las flechas verdes para mapas adyacentes.


METAR-TAF: